Retour au catalogue

STARLINK-3545

ActifCommunicationsVLEO
NORAD 51855·PAYLOAD·🇺🇸 United States

Lancé Mar 3, 2022 depuis Cape Canaveral Space Force Station

Loading…

Prochains Passages (prochaines 24 heures)

TLE

FraisSource: CelesTrak SupGP

Époque: Sep 15, 2026, 02:00 UTC

1 51855C 22022D   26258.08381944 -.00056927  00000+0 -16820-2 0  2589
2 51855  53.1579 234.7410 0001374  92.7141 338.9539 15.34417743    16

Suivez STARLINK-3545 en temps réel avec AllMySat

Download on the App Store